Weather History for St. Joseph, MO

Change the Weather History Date:

Monday, April 29, 2013

  Actual Average Record
Temperature  
Mean Temperature 70 °F 58 °F  
Max Temperature 85 °F 70 °F 94 °F (1970)
Min Temperature 54 °F 47 °F 31 °F (1958)
Degree Days  
Heating Degree Days 0 7  
Month to date heating degree days 480 337  
Since 1 July heating degree days 5433 5330  
Cooling Degree Days 5 1  
Month to date cooling degree days 5 22  
Year to date cooling degree days 5 24  
Growing Degree Days 20 (Base 50)    
Moisture  
Dew Point 56 °F    
Average Humidity 62    
Maximum Humidity 83    
Minimum Humidity 40    
Precipitation  
Precipitation 0.00 in 0.19 in 1.53 in (1974)
Month to date precipitation 3.42 3.61  
Year to date precipitation 6.51 7.35  
Sea Level Pressure  
Sea Level Pressure 29.68 in    
Wind  
Wind Speed 13 mph (South)    
Max Wind Speed 22 mph    
Max Gust Speed 31 mph    
Visibility 10 miles    
Events      
T = Trace of Precipitation, MM = Missing Value Source: NWS Daily Summary

Daily Weather History Graph

Daily Weather History Graph

Search for Another Location

Airport:

Trip Planner

Search our weather history database for the weather conditions in past years. The results will help you decide how hot, cold, wet, or windy it might be!

Date:

Astronomy

Apr. 29, 2013 Rise Set
Actual Time 6:22 AM CDT 8:12 PM CDT
Civil Twilight 5:53 AM CDT 8:41 PM CDT
Nautical Twilight 5:18 AM CDT 9:16 PM CDT
Astronomical Twilight 4:40 AM CDT 9:54 PM CDT
Moon No Moon Rise 9:44 AM CDT (4/29)
Length of Visible Light 14h 48m
Length of Day
13h 49m
Waning Gibbous, 80% of the Moon is Illuminated
Apr 29
Waning Gibbous
May 2
Last Quarter
May 9
New
May 17
First Quarter
May 24
Full

Hourly Weather History & Observations

Time (CDT) Temp. Heat Index Dew Point Humidity Pressure Visibility Wind Dir Wind Speed Gust Speed Precip Events Conditions
12:53 AM 60.1 °F - 52.0 °F 75% 29.79 in 10.0 mi South 9.2 mph - N/A   Clear
1:53 AM 59.0 °F - 52.0 °F 78% 29.78 in 10.0 mi SSE 9.2 mph - N/A   Clear
2:53 AM 57.9 °F - 51.1 °F 78% 29.76 in 10.0 mi South 8.1 mph - N/A   Clear
3:53 AM 57.0 °F - 51.1 °F 81% 29.75 in 10.0 mi South 8.1 mph - N/A   Clear
4:53 AM 55.9 °F - 50.0 °F 80% 29.76 in 10.0 mi South 5.8 mph - N/A   Clear
5:53 AM 57.0 °F - 51.1 °F 81% 29.76 in 10.0 mi South 8.1 mph - N/A   Clear
6:53 AM 59.0 °F - 52.0 °F 78% 29.75 in 10.0 mi South 15.0 mph - N/A   Clear
7:53 AM 63.0 °F - 54.0 °F 72% 29.75 in 10.0 mi SSW 11.5 mph - N/A   Clear
8:53 AM 66.0 °F - 54.0 °F 65% 29.74 in 10.0 mi SSW 17.3 mph - N/A   Clear
9:53 AM 70.0 °F - 55.9 °F 61% 29.74 in 10.0 mi SW 10.4 mph - N/A   Clear
10:53 AM 73.0 °F - 57.0 °F 57% 29.73 in 10.0 mi SSW 9.2 mph - N/A   Clear
11:53 AM 75.9 °F - 59.0 °F 56% 29.71 in 10.0 mi SW 9.2 mph - N/A   Clear
12:53 PM 79.0 °F - 57.9 °F 48% 29.68 in 10.0 mi SSW 12.7 mph - N/A   Clear
1:53 PM 81.0 °F 81.6 °F 60.1 °F 49% 29.67 in 10.0 mi SSW 10.4 mph 18.4 mph N/A   Clear
2:53 PM 82.0 °F 82.4 °F 60.1 °F 47% 29.65 in 10.0 mi SSW 12.7 mph - N/A   Clear
3:53 PM 82.9 °F 82.8 °F 59.0 °F 44% 29.62 in 10.0 mi SSW 16.1 mph 19.6 mph N/A   Clear
4:53 PM 84.9 °F 84.2 °F 57.9 °F 40% 29.60 in 10.0 mi SSW 12.7 mph - N/A   Clear
5:53 PM 82.0 °F 82.1 °F 59.0 °F 45% 29.59 in 10.0 mi South 16.1 mph 24.2 mph N/A   Clear
6:53 PM 82.9 °F 83.2 °F 60.1 °F 46% 29.58 in 10.0 mi South 16.1 mph 24.2 mph N/A   Clear
7:53 PM 80.1 °F 80.9 °F 60.1 °F 50% 29.59 in 10.0 mi South 15.0 mph - N/A   Clear
8:53 PM 77.0 °F - 60.1 °F 56% 29.59 in 10.0 mi South 16.1 mph - N/A   Clear
9:53 PM 75.9 °F - 59.0 °F 56% 29.58 in 10.0 mi South 15.0 mph - N/A   Clear
10:53 PM 75.9 °F - 57.0 °F 52% 29.59 in 10.0 mi South 19.6 mph - N/A   Clear
11:53 PM 75.0 °F - 55.9 °F 51% 29.59 in 10.0 mi South 21.9 mph 27.6 mph N/A   Clear